星链-37292(STARLINK-37292)

导读

STARLINK-37292(NORAD编号68787)是美国SpaceX公司星链(Starlink)卫星互联网星座的一员,属于低地球轨道(LEO)通信卫星。星链项目旨在构建全球覆盖的高速低延迟卫星互联网,为地面基础设施匮乏区域提供网络接入服务。该卫星运行在距地面约550公里的近地轨道,依托星链星座的激光星间链路与无线电地面通信技术,为全球用户提供宽带互联服务。作为SpaceX大规模星座部署中的一颗卫星,它承担着拓展全球网络覆盖、提升星座服务容量的作用,是星链计划持续扩张星座规模的组成部分。

Basic Information
目录编号:
68787
目录名称:
STARLINK-37292
国际标识:
2026-086X
轨道中心:
EARTH
卫星名称:
星链-37292
卫星全名:
星链-37292(STARLINK-37292)
卫星状态:
在轨 (已飞行146 天)
发射日期:
2026-04-19 UTC
国别 :
美国 (US)
星等 :
--
This satellite is enrolled in the Space Conjunction Data Service (SCDS) and the current flight risk assessment level is: High Risk
Orbit Information
数据来源 国际轨道数据 AOE轨道数据
星历时间 2026-09-12T10:32:50+0800
10小时前
查看轨道信息
2026-09-05T22:00:00+0800
6天前
查看轨道信息
半长轴 6843.657km 6843.636km
偏心率 0.0001587 0.0000651
轨道倾角 97.282° 97.287°
近地点辐角 102.488° 61.639°
升交点赤经 290.731° 284.303°
平近点角 257.654° 313.578°
近地点 464.433km 465.053km
远地点 466.607km 465.945km
周期 93.906分钟 93.905分钟
每日圈数 15.334531 15.334599
Detailed Information
固有亮度:
5
最大亮度:
2.5
卫星平台:
Starlink V1.0
覆盖范围:
全球
运营商:
太空探索技术公司
运营商所在国:
美国
制造商(研发单位):
太空探索技术公司
制造商所在国:
美国
使用方式:
暂无
Satellite Introduction
Starlink 计划是 SpaceX 推出的全球卫星互联网项目,通过发射低轨道卫星,为全球尤其是偏远地区提供高速、低延迟的互联网服务。自 2019 年起,Starlink 已部署数千颗卫星,旨在缩小全球数字鸿沟,推动互联网普及。该项目还为军事、航空等行业提供通信支持,带来广泛经济效益。
2D Orbit Map
3D Orbit Map
Orbit Altitude Analysis Chart
Orbit Inclination Analysis Chart
Orbit Comprehensive Analysis Chart
View Comprehensive Chart
Conjunction Data List
Event ID Objects TCA Miss Dist (km) Collision Risk Probability Collision Risk Index (CRI) Action
CDM_260914-094406-567406-878721
2026-09-14T
09:44:54+0000
0.141 km
中距离
4.986244E-4 高风险 0.89
CDM_260914-055006-567406-878721
2026-09-14T
05:50:00+0000
0.770 km
远距离
9.687011E-6 低风险 0.55
CDM_260912-234806-035206-878721
STRIX-4 (60352)
2026-09-12T
23:48:59+0000
2.081 km
极远距离
2.490145E-6 低风险 0.43
CDM_260914-075905-385706-878721
2026-09-14T
07:59:15+0000
2.309 km
极远距离
1.982502E-6 低风险 0.41
CDM_260912-055405-410106-878721
2026-09-12T
05:54:45+0000
2.488 km
极远距离
1.564066E-6 低风险 0.39
CDM_260912-194804-789506-878722
2026-09-12T
19:48:53+0000
2.692 km
极远距离
1.548248E-6 低风险 0.39
CDM_260914-204304-117306-878721
DAMPE (41173)
2026-09-14T
20:43:22+0000
1.853 km
极远距离
1.521126E-6 低风险 0.39
CDM_260914-152506-542706-878721
2026-09-14T
15:25:46+0000
2.770 km
极远距离
1.439779E-6 低风险 0.38
CDM_260914-072306-567406-878721
2026-09-14T
07:23:57+0000
1.387 km
极远距离
1.401716E-6 低风险 0.38
CDM_260913-185005-701406-878721
OBJECT L (57014)
2026-09-13T
18:50:48+0000
2.827 km
极远距离
1.109873E-6 低风险 0.36
Miss Distance Evolution Trend with All Objects
Collision Probability Evolution Trend with All Objects